This is the latest recevied weather packets stored in our database for station/object KC3AWA. If no packets are shown the sender has not sent any weather packets the latest 10 day(s).
| Time | Temp. | Humidity | Pressure | Rain* | Wind** | Luminosity | Snow |
|---|---|---|---|---|---|---|---|
| 1778080275 | 9.44° C | 92% | 1010.4 hPa | 0 mm | - | 114 W/m² | - |
| 1778079972 | 9.44° C | 92% | 1010.4 hPa | 0 mm | - | 216 W/m² | - |
| 1778079669 | 8.89° C | 92% | 1010.2 hPa | 0 mm | - | 191 W/m² | - |
| 1778079366 | 9.44° C | 92% | 1010.1 hPa | 0 mm | - | 146 W/m² | - |
| 1778079063 | 9.44° C | 93% | 1010 hPa | 0 mm | - | 252 W/m² | - |
| 1778078760 | 9.44° C | 94% | 1009.5 hPa | 0 mm | - | 238 W/m² | - |
| 1778078456 | 9.44° C | 93% | 1009.6 hPa | 0 mm | - | 216 W/m² | - |
| 1778078155 | 10° C | 94% | 1009.4 hPa | 0 mm | - | 124 W/m² | - |
| 1778077853 | 9.44° C | 95% | 1009.7 hPa | 0 mm | - | 295 W/m² | - |
| 1778077550 | 9.44° C | 95% | 1009.5 hPa | 0 mm | - | 287 W/m² | - |
| 1778077248 | 8.89° C | 95% | 1009.5 hPa | 0 mm | - | 247 W/m² | - |
| 1778076946 | 8.89° C | 96% | 1009.4 hPa | 0 mm | - | 178 W/m² | - |
| 1778076644 | 8.89° C | 96% | 1009.4 hPa | 0 mm | - | 286 W/m² | - |
| 1778076341 | 8.89° C | 96% | 1009.5 hPa | 0 mm | - | 215 W/m² | - |
| 1778076038 | 8.89° C | 96% | 1009.3 hPa | 0 mm | - | 268 W/m² | - |
| 1778075735 | 8.89° C | 96% | 1009.3 hPa | 0 mm | - | 258 W/m² | - |
| 1778075431 | 8.89° C | 97% | 1009.2 hPa | 0 mm | - | 211 W/m² | - |
| 1778075127 | 8.33° C | 97% | 1009.2 hPa | 0 mm | - | 179 W/m² | - |
| 1778074824 | 8.33° C | 97% | 1009.2 hPa | 0 mm | - | 149 W/m² | - |
| 1778074521 | 8.33° C | 97% | 1009.4 hPa | 0 mm | - | 138 W/m² | - |
| 1778074218 | 8.33° C | 97% | 1009.3 hPa | 0 mm | - | 130 W/m² | - |
| 1778073915 | 8.33° C | 97% | 1009 hPa | 0 mm | - | 135 W/m² | - |
| 1778073612 | 8.33° C | 97% | 1009 hPa | 0 mm | - | 148 W/m² | - |
| 1778073309 | 8.33° C | 97% | 1008.9 hPa | 0 mm | - | 151 W/m² | - |
| 1778073006 | 7.78° C | 97% | 1008.6 hPa | 0 mm | - | 145 W/m² | - |
* Rain latest hour (hover to see other rain measurements)
** Current wind speed in m/s (hover to see current wind gust speed)